This is the latest recevied weather packets stored in our database for station/object K5OBH. If no packets are shown the sender has not sent any weather packets the latest 10 day(s).
| Time | Temp. | Humidity | Pressure | Rain* | Wind** | Luminosity | Snow |
|---|---|---|---|---|---|---|---|
| 1777746303 | 21.11° C | 47% | 1020.2 hPa | 0 mm | - | 246 W/m² | - |
| 1777746000 | 21.11° C | 48% | 1020.4 hPa | 0 mm | - | 180 W/m² | - |
| 1777745698 | 21.67° C | 46% | 1020.4 hPa | 0 mm | - | 271 W/m² | - |
| 1777745397 | 21.67° C | 47% | 1020.3 hPa | 0 mm | - | 315 W/m² | - |
| 1777745093 | 21.67° C | 46% | 1020.3 hPa | 0 mm | - | 232 W/m² | - |
| 1777744790 | 22.22° C | 49% | 1020.5 hPa | 0 mm | - | 248 W/m² | - |
| 1777744489 | 22.22° C | 48% | 1020.4 hPa | 0 mm | - | 851 W/m² | - |
| 1777744186 | 21.67° C | 47% | 1020.6 hPa | 0 mm | - | 856 W/m² | - |
| 1777743884 | 21.67° C | 48% | 1020.6 hPa | 0 mm | - | 875 W/m² | - |
| 1777743580 | 21.67° C | 49% | 1020.6 hPa | 0 mm | - | 398 W/m² | - |
| 1777743277 | 22.22° C | 47% | 1020.8 hPa | 0 mm | - | 442 W/m² | - |
| 1777742975 | 22.22° C | 47% | 1020.6 hPa | 0 mm | - | 749 W/m² | - |
| 1777742672 | 21.67° C | 50% | 1020.7 hPa | 0 mm | - | 817 W/m² | - |
| 1777742368 | 21.11° C | 49% | 1020.9 hPa | 0 mm | - | 412 W/m² | - |
| 1777742064 | 21.67° C | 49% | 1020.7 hPa | 0 mm | - | 785 W/m² | - |
| 1777741762 | 21.11° C | 48% | 1020.6 hPa | 0 mm | - | 714 W/m² | - |
| 1777741458 | 21.67° C | 48% | 1020.8 hPa | 0 mm | - | 708 W/m² | - |
| 1777741154 | 21.11° C | 50% | 1020.8 hPa | 0 mm | - | 693 W/m² | - |
| 1777740852 | 21.11° C | 51% | 1020.6 hPa | 0 mm | - | 694 W/m² | - |
| 1777740548 | 21.11° C | 50% | 1021 hPa | 0 mm | - | 675 W/m² | - |
| 1777740245 | 20.56° C | 52% | 1020.9 hPa | 0 mm | - | 666 W/m² | - |
| 1777739941 | 21.11° C | 50% | 1021 hPa | 0 mm | - | 650 W/m² | - |
| 1777739638 | 21.11° C | 49% | 1020.8 hPa | 0 mm | - | 643 W/m² | - |
| 1777739335 | 20.56° C | 51% | 1020.8 hPa | 0 mm | - | 640 W/m² | - |
| 1777739032 | 20° C | 51% | 1020.9 hPa | 0 mm | - | 628 W/m² | - |
* Rain latest hour (hover to see other rain measurements)
** Current wind speed in m/s (hover to see current wind gust speed)